Weather in Novoye Chaplino

Russia / Chukotka Autonomous Okrug     64°29′55″N   172°51′32″W
temp.,
°C
wind,
m/s
gust,
m/s
humid.,
%
clouds,
%
prec.,
mm/h
press.,
hPa
HPBL,
m
1 december, wed
wed100:00−26nnw22800 0.0 101312
03:00−26nnw32780 0.0 101212
06:00−26nnw22780 0.0 101310
09:00−26nnw22780 0.0 101310
12:00−25nnw22780 0.0 101310
15:00−26nnw22770 0.0 101310
18:00−26nnw22740 0.0 101411
21:00−26nnw22690 0.0 10159
2 december, thu
thu200:00−26nw22650 0.0 10179
03:00−25nw22630 0.0 10189
06:00−25nw22650 0.0 10209
09:00−25nw22650 0.0 10229
12:00−24nnw22650 0.0 10249
15:00−25nnw22650 0.0 10269
18:00−25nnw22680 0.0 10299
21:00−26n22745 0.0 10319
3 december, fri
fri300:00−25wnw007152 0.0 10339
03:00−23n0068100 0.0 10329
06:00−20ne1198100 0.1 103111
09:00−19e1199100 0.3 102830
12:00−13se3497100 1.7 102399
15:00−9sse5996100 5.9 1017486
18:00−7se71396100 9.3 1010692
21:00−6se91896100 3.2 1004890
4 december, sat
sat400:00−6sse81396100 6.9 1000670
03:00−5sse61196100 3.9 997529
06:00−5nnw119895 7.3 99623
09:00−9nnw229899 0.4 99817
12:00−8n5595100 2.3 999143
15:00−12n4495100 0.4 100154
18:00−15w229717 0.5 100610
21:00−18wsw32975 0.0 100910
5 december, sun
sun500:00−19ssw229659 0.0 101211
03:00−9s4697100 0.1 1010113
06:00−2ssw71499100 4.7 1004747
09:00−1ssw91798100 4.3 1002809
12:00−1ssw81698100 9.3 1000818
15:00−1ssw61398100 3.4 998742
18:00−2s3699100 5.6 996319
21:00−2nne2199100 2.4 99130